Home   Weather   Riverside   Past weeks
Flag for USA

Past Weather in Riverside, California, USA — March 2019

Now
67 °F

Partly sunny.


Feels Like: 67 °F
Forecast: 67 / 54 °F
Wind: 9 mph from West

Location: Riverside Municipal Airport

Current Time: Apr 20, 2019 at 1:38:12 pm

Latest Report: Apr 20, 2019 at 12:53 pm


Visibility: 10 mi

Pressure: 29.95 "Hg

Humidity: 49%

Dew Point: 47 °F

Location of RiversideLocation

March 2019 Weather in Riverside — Graph

°F

High & Low Weather Summary for March 2019

 TemperatureHumidityPressure
High83 °F (Mar 17, 2:53 pm)100% (Mar 2, 6:10 am)30.21 "Hg (Mar 2, 6:10 am)
Low42 °F (Mar 9, 5:53 am)11% (Mar 14, 4:53 pm)29.70 "Hg (Mar 12, 2:53 pm)
Average57 °F65%30.01 "Hg
* Reported Mar 1 12:53 am — Mar 31 11:53 pm, Riverside. Weather by CustomWeather, © 2019

Note: Actual official high and low records may vary slightly from our data, if they occured in-between our weather recording intervals... More about our weather records

Advertising

Riverside Weather History for March 1, 2019

Scroll right to see more
 ConditionsComfort  
Time TempWeatherWind HumidityBarometerVisibility
12:53 am
Fri, Mar 1
56 °FLow clouds.5 mph90%30.09 "Hg8 mi
1:53 am56 °FLow clouds.No wind90%30.06 "Hg7 mi
3:00 am56 °FFog.No wind90%30.05 "Hg6 mi
3:08 am56 °FFog.3 mph90%30.05 "Hg6 mi
3:31 am56 °FFog.3 mph90%30.05 "Hg6 mi
3:42 am56 °FFog.3 mph90%30.03 "Hg6 mi
3:53 am56 °FFog.5 mph87%30.01 "Hg6 mi
4:53 am56 °FOvercast.No wind87%30.02 "Hg7 mi
5:53 am55 °FOvercast.3 mph90%30.03 "Hg7 mi
6:53 am55 °FFog.No wind90%30.05 "Hg5 mi
7:53 am56 °FFog.5 mph90%30.07 "Hg6 mi
8:53 am58 °FMostly cloudy.No wind84%30.08 "Hg7 mi
9:53 am60 °FMore clouds than sun.3 mph75%30.06 "Hg7 mi
10:53 am62 °FPartly sunny.No wind67%30.06 "Hg10 mi
11:53 am63 °FPartly sunny.5 mph65%30.04 "Hg10 mi
12:53 pm65 °FMostly cloudy.10 mph61%30.02 "Hg10 mi
1:53 pm64 °FMore clouds than sun.8 mph58%30.01 "Hg10 mi
2:53 pm65 °FMore clouds than sun.7 mph56%30.00 "Hg10 mi
3:53 pm63 °FOvercast.5 mph60%30.00 "Hg10 mi
4:53 pm63 °FOvercast.7 mph60%30.00 "Hg10 mi
5:53 pm61 °FOvercast.7 mph72%30.00 "Hg10 mi
6:53 pm60 °FMostly cloudy.3 mph75%29.99 "Hg10 mi
7:53 pm58 °FPassing clouds.3 mph81%30.00 "Hg10 mi
8:53 pm57 °FPassing clouds.5 mph78%30.01 "Hg10 mi
9:53 pm58 °FPassing clouds.3 mph78%30.00 "Hg10 mi
10:53 pm56 °FPassing clouds.No wind81%30.00 "Hg10 mi
11:53 pm56 °FMostly cloudy.No wind81%29.98 "Hg10 mi
Weather by CustomWeather, © 2019

See weather overview